FENGYUN 3B

Last updated on Thu Oct 30 2025 00:02:23 GMT+0000 (Coordinated Universal Time)

1 37214U 10059A 25302.56273068 .00000101 00000+0 75874-4 0 9997 2 37214 98.9977 342.2166 0023033 119.1727 37.9072 14.14771133774818
UTC large
Height (km)
Speed (km/s)
/
Latitude / Longitude
Inclination (degrees)
Orbital Period (minutes)
Azimuth
Elevation
Range (km)
Doppler Factor

Next 0 passes for location: London (51.5072 / 0.1276)

Sorry there are no passes over London.